Voltar ao catálogo

SL-8 DEB

AtivoLEO
NORAD 1478·DEBRIS·🇷🇺 Russia

Lançado Mar 15, 1965 de Baikonur Cosmodrome

Loading…

Próximas Passagens (próximas 24 horas)

TLE

AtualizadoSource: Space-Track

Época: Sep 14, 2026, 10:57 UTC

1 01478U 65020BC  26257.45675276  .00000417  00000-0  26143-3 0  9998
2 01478  56.0750  54.0074 0586616  21.4168 341.0279 13.56164952936982

Acompanhe SL-8 DEB em tempo real com AllMySat

Download on the App Store